User: anonymous   Login
Location: NJAA Observatory
(40.6819°N, 74.8979°W)
Time: 03:12:30
(UTC-04:00)
Language:

Cosmos 2237 Rocket - Orbit

View from above orbital plane
View from above orbital plane
View from above satellite
View from above satellite

Ground track
Ground track

The orbit data is extracted from the following two-line orbital elements,

1 22566U 93016B   18142.89541237 -.00000073 +00000-0 -13203-4 0  9990
2 22566 071.0091 073.8459 0011567 326.1721 033.8663 14.14957301299317
Epoch (UTC): 22 May 2018 21:29:23
Eccentricity: 0.0011567
inclination: 71.0091°
perigee height: 834 km
apogee height: 851 km
right ascension of ascending node: 73.8459°
argument of perigee: 326.1721°
revolutions per day: 14.14957301
mean anomaly at epoch: 33.8663°
orbit number at epoch: 29931

The dashed part of the orbit path shows where the satellite is in the earth's shadow,  

DLR